Weather home | Your neighborhood | Marine | Radar | Hurricane | Almanac

Daily weather history


Statistical History for Thursday, February 28, 2013

St. Petersburg Airport, FL


  Actual Average Record
Temperature
Mean Temperature -  
Max Temperature 73 °F 86 °F (1997)
Min Temperature 57 °F 37 °F (2002)
Degree Days
Heating Degree Days    
Growing Degree Days 12 (Base - )  
Moisture
Dew Point   
Average Humidity    
Maximum Humidity    
Minimum Humidity    
Precipitation
Precipitation - - ()
Wind
Wind Speed   
Max Wind Speed   
Max Gust Speed   
Visibility   
Events   
Averages and records for this station are not official NWS values.
Key: T is trace of precipitation, MM is missing value
Source: NWS Daily Summary
Seasonal Weather Averages
Time(EST)TemperatureDew PointHumidity Sea Level Pressure Visibility Wind DirectionWind SpeedGust SpeedPrecipitationEventsConditions
12:53 AM 60.8 °F 51.8 °F 72% 29.98 in 10.0 miles WNW 9.2 mph - N/A   Clear
1:53 AM 57.9 °F 50.0 °F 75% 29.98 in 10.0 miles NW 5.8 mph - N/A   Clear
2:53 AM 60.1 °F 52.0 °F 75% 29.96 in 10.0 miles NNW 9.2 mph - N/A   Scattered Clouds
3:53 AM 59.0 °F 51.1 °F 75% 29.96 in 10.0 miles West 3.5 mph - N/A   Clear
4:53 AM 53.1 °F 48.9 °F 86% 29.97 in 10.0 miles SW 4.6 mph - N/A   Clear
5:53 AM 57.0 °F 51.1 °F 81% 29.97 in 10.0 miles NW 9.2 mph - N/A   Clear
6:53 AM 55.0 °F 50.0 °F 83% 29.99 in 10.0 miles SW 6.9 mph - N/A   Scattered Clouds
7:53 AM 60.1 °F 52.0 °F 75% 30.00 in 10.0 miles WNW 3.5 mph - N/A   Partly Cloudy
8:53 AM 66.0 °F 53.1 °F 63% 30.02 in 10.0 miles WNW 9.2 mph - N/A   Clear
9:53 AM 68.0 °F 51.1 °F 55% 30.02 in 10.0 miles NW 11.5 mph - N/A   Scattered Clouds
10:53 AM 70.0 °F 51.1 °F 51% 30.01 in 10.0 miles WNW 9.2 mph - N/A   Partly Cloudy
11:53 AM 72.0 °F 50.0 °F 46% 30.01 in 10.0 miles West 11.5 mph - N/A   Scattered Clouds
12:53 PM 69.1 °F 50.0 °F 51% 29.99 in 10.0 miles WNW 12.7 mph 18.4 mph N/A   Scattered Clouds
1:53 PM 71.1 °F 52.0 °F 51% 29.96 in 10.0 miles NW 10.4 mph - N/A   Scattered Clouds
2:53 PM 72.0 °F 48.9 °F 44% 29.95 in 10.0 miles WNW 11.5 mph 20.7 mph N/A   Partly Cloudy
3:53 PM 71.6 °F 50.0 °F 46% 29.94 in 10.0 miles WNW 11.5 mph - N/A   Clear
4:53 PM 69.1 °F 48.9 °F 49% 29.94 in 10.0 miles West 13.8 mph 20.7 mph N/A   Clear
5:53 PM 66.0 °F 51.1 °F 59% 29.96 in 10.0 miles WNW 15.0 mph 21.9 mph N/A   Clear
6:53 PM 63.0 °F 54.0 °F 72% 29.96 in 10.0 miles NW 12.7 mph - N/A   Partly Cloudy
7:53 PM 61.0 °F 48.9 °F 64% 29.99 in 10.0 miles NW 10.4 mph - N/A   Partly Cloudy
8:53 PM 57.9 °F 48.0 °F 70% 29.98 in 10.0 miles WNW 5.8 mph - N/A   Clear
9:53 PM 57.0 °F 46.0 °F 67% 29.99 in 10.0 miles WNW 4.6 mph - N/A   Clear
10:53 PM 57.0 °F 46.0 °F 67% 29.99 in 10.0 miles WNW 3.5 mph - N/A   Clear
11:53 PM 57.0 °F 45.0 °F 64% 29.98 in 10.0 miles WNW 6.9 mph - N/A   Clear
ADVERTISEMENT
Enter city or zip code to search weather conditions:


  • 490 First Avenue South
  • St. Petersburg, FL 33701
  • 727-893-8111